Volkel, Netherlands

7:21 AM CET on February 23, 2017 (GMT +0100)
Volkel Air Base

Weather History for EHVK - December, 2012

Change the Weather History Date:

Wednesday, December 5, 2012

  Actual Average Record
Temperature  
Mean Temperature 34 °F -  
Max Temperature 37 °F 41 °F 59 °F (2006)
Min Temperature 32 °F 32 °F 23 °F (1997)
Degree Days  
Heating Degree Days 30    
Moisture  
Dew Point 33 °F    
Average Humidity 97    
Maximum Humidity 100    
Minimum Humidity 75    
Precipitation  
Precipitation 0.00 in - - ()
Sea Level Pressure  
Sea Level Pressure 29.61 in    
Wind  
Wind Speed 5 mph ()    
Max Wind Speed 10 mph    
Max Gust Speed -    
Visibility 4.7 miles    
Events Fog , Rain    
Averages and records for this station are not official NWS values.
T = Trace of Precipitation, MM = Missing Value Source: Averaged Metar Reports

Daily Weather History Graph

Daily Weather History Graph

Search for Another Location

Airport or City:

Trip Planner

Search our weather history database for the weather conditions in past years. The results will help you decide how hot, cold, wet, or windy it might be!

Date:

Astronomy

Dec. 05, 2012 Rise Set
Actual Time 8:26 AM CET 4:28 PM CET
Civil Twilight 7:47 AM CET 5:08 PM CET
Nautical Twilight 7:04 AM CET 5:51 PM CET
Astronomical Twilight 6:23 AM CET 6:31 PM CET
Moon 11:36 PM CET (12/5) 12:11 PM CET (12/5)
Length of Visible Light 9h 21m
Length of Day
8h 01m
Waning Gibbous, 62% of the Moon is Illuminated
Dec 5
Waning Gibbous
Dec 6
Last Quarter
Dec 13
New
Dec 20
First Quarter
Dec 28
Full

Hourly Weather History & Observations

Time (CET) Temp. Windchill Dew Point Humidity Pressure Visibility Wind Dir Wind Speed Gust Speed Precip Events Conditions
12:25 AM 35.6 °F 31.7 °F 35.6 °F 100% 29.53 in 6.2 mi West 4.6 mph - N/A   Overcast
12:55 AM 35.6 °F 31.7 °F 35.6 °F 100% 29.53 in 6.2 mi West 4.6 mph - N/A   Overcast
1:10 AM 35.6 °F 31.7 °F 33.8 °F 93% 29.53 in 4.3 mi West 4.6 mph - N/A   Mostly Cloudy
1:20 AM 35.6 °F 32.8 °F 33.8 °F 93% 29.53 in 5.0 mi West 3.5 mph - N/A   Mostly Cloudy
1:25 AM 35.6 °F 32.8 °F 35.6 °F 100% 29.53 in 5.0 mi West 3.5 mph - N/A   Overcast
1:29 AM 35.6 °F 32.8 °F 33.8 °F 93% 29.53 in 4.3 mi West 3.5 mph - N/A   Overcast
1:40 AM 35.6 °F 31.7 °F 33.8 °F 93% 29.53 in 5.0 mi West 4.6 mph - N/A   Mostly Cloudy
1:44 AM 35.6 °F 31.7 °F 33.8 °F 93% 29.53 in 4.3 mi West 4.6 mph - N/A   Mostly Cloudy
1:55 AM 35.6 °F 31.7 °F 33.8 °F 93% 29.53 in 3.7 mi West 4.6 mph - N/A   Overcast
2:25 AM 35.6 °F 31.7 °F 35.6 °F 100% 29.53 in 4.3 mi West 4.6 mph - N/A   Overcast
2:46 AM 35.6 °F 31.7 °F 35.6 °F 100% 29.53 in - West 4.6 mph - N/A   Overcast
2:50 AM 35.6 °F 31.7 °F 35.6 °F 100% 29.53 in 3.1 mi West 4.6 mph - N/A   Overcast
2:55 AM 35.6 °F 31.7 °F 35.6 °F 100% 29.53 in 2.8 mi West 4.6 mph - N/A   Overcast
3:01 AM 35.6 °F 31.7 °F 35.6 °F 100% 29.53 in - WSW 4.6 mph - N/A   Overcast
3:25 AM 35.6 °F 31.7 °F 35.6 °F 100% 29.53 in 1.8 mi West 4.6 mph - N/A   Overcast
3:55 AM 35.6 °F 32.8 °F 35.6 °F 100% 29.53 in 1.7 mi WNW 3.5 mph - N/A   Mostly Cloudy
4:18 AM 33.8 °F 30.8 °F 33.8 °F 100% 29.53 in 0.8 mi West 3.5 mph - N/A   Overcast
4:25 AM 33.8 °F 30.8 °F 33.8 °F 100% 29.53 in 0.9 mi West 3.5 mph - N/A   Mostly Cloudy
4:33 AM 33.8 °F - 33.8 °F 100% 29.53 in 0.6 mi WNW 2.3 mph - N/A Fog Fog
4:37 AM 33.8 °F - 33.8 °F 100% 29.53 in 0.6 mi WNW 2.3 mph - N/A   Mostly Cloudy
4:55 AM 33.8 °F 30.8 °F 33.8 °F 100% 29.53 in 0.4 mi West 3.5 mph - N/A Fog Fog
5:25 AM 33.8 °F 29.6 °F 33.8 °F 100% 29.53 in 0.1 mi WNW 4.6 mph - N/A Fog Fog
5:55 AM 33.8 °F - 33.8 °F 100% 29.56 in 0.2 mi NW 2.3 mph - N/A Fog Fog
6:11 AM 33.8 °F 29.6 °F 33.8 °F 100% 29.56 in 1.4 mi NNW 4.6 mph - N/A   Overcast
6:15 AM 33.8 °F 28.6 °F 33.8 °F 100% 29.56 in - NNW 5.8 mph - N/A   Mostly Cloudy
6:25 AM 33.8 °F 28.6 °F 33.8 °F 100% 29.56 in 3.1 mi North 5.8 mph - N/A   Mostly Cloudy
6:32 AM 33.8 °F 28.6 °F 33.8 °F 100% 29.56 in 5.6 mi North 5.8 mph - N/A   Overcast
6:45 AM 33.8 °F 29.6 °F 33.8 °F 100% 29.56 in 6.2 mi North 4.6 mph - N/A   Overcast
6:55 AM 33.8 °F 30.8 °F 33.8 °F 100% 29.56 in 6.2 mi North 3.5 mph - N/A   Overcast
7:25 AM 33.8 °F 30.8 °F 33.8 °F 100% 29.56 in 6.2 mi North 3.5 mph - N/A   Overcast
7:36 AM 33.8 °F 29.6 °F 33.8 °F 100% 29.56 in 6.2 mi North 4.6 mph - N/A   Overcast
7:49 AM 33.8 °F 29.6 °F 33.8 °F 100% 29.59 in 6.2 mi North 4.6 mph - N/A   Overcast
7:55 AM 33.8 °F 30.8 °F 33.8 °F 100% 29.59 in 6.2 mi North 3.5 mph - N/A   Overcast
8:01 AM 33.8 °F 30.8 °F 33.8 °F 100% 29.59 in 6.2 mi NNW 3.5 mph - N/A   Overcast
8:25 AM 32.0 °F - 32.0 °F 100% 29.59 in 6.2 mi West 1.2 mph - N/A   Overcast
8:38 AM 32.0 °F - 32.0 °F 100% 29.59 in 6.2 mi Calm Calm - N/A   Overcast
8:42 AM 32.0 °F - 32.0 °F 100% 29.59 in 4.3 mi Calm Calm - N/A   Overcast
8:48 AM 32.0 °F - 32.0 °F 100% 29.59 in 6.2 mi Calm Calm - N/A   Overcast
8:55 AM 32.0 °F - 32.0 °F 100% 29.59 in 6.2 mi ESE 1.2 mph - N/A   Overcast
9:01 AM 32.0 °F - 32.0 °F 100% 29.59 in 3.1 mi East 2.3 mph - N/A   Overcast
9:05 AM 32.0 °F - 30.2 °F 93% 29.59 in 5.0 mi East 2.3 mph - N/A   Overcast
9:10 AM 32.0 °F - 32.0 °F 100% 29.59 in 4.3 mi East 1.2 mph - N/A   Overcast
9:14 AM 32.0 °F - 30.2 °F 93% 29.62 in 5.6 mi South 1.2 mph - N/A   Overcast
9:25 AM 32.0 °F - 32.0 °F 100% 29.62 in 5.0 mi SW 2.3 mph - N/A   Overcast
9:31 AM 32.0 °F - 32.0 °F 100% 29.62 in 4.3 mi WSW 1.2 mph - N/A   Overcast
9:32 AM 32.0 °F - 32.0 °F 100% 29.62 in 5.0 mi WSW 2.3 mph - N/A   Overcast
9:39 AM 32.0 °F - 32.0 °F 100% 29.62 in 4.3 mi WSW 2.3 mph - N/A   Overcast
9:43 AM 32.0 °F 28.7 °F 32.0 °F 100% 29.62 in 5.0 mi WSW 3.5 mph - N/A   Overcast
9:55 AM 32.0 °F 28.7 °F 32.0 °F 100% 29.62 in 5.6 mi WSW 3.5 mph - N/A   Overcast
10:13 AM 32.0 °F - 32.0 °F 100% 29.62 in 6.2 mi WSW 2.3 mph - N/A   Scattered Clouds
10:25 AM 32.0 °F 28.7 °F 32.0 °F 100% 29.62 in 6.2 mi SW 3.5 mph - N/A   Unknown
10:27 AM 32.0 °F 28.7 °F 32.0 °F 100% 29.62 in 6.2 mi SW 3.5 mph - N/A   Unknown
10:55 AM 33.8 °F 30.8 °F 33.8 °F 100% 29.62 in 6.2 mi SW 3.5 mph - N/A   Unknown
11:25 AM 37.4 °F - 35.6 °F 93% 29.62 in 6.2 mi SW 2.3 mph - N/A   Unknown
11:55 AM 37.4 °F 34.9 °F 33.8 °F 87% 29.62 in 6.2 mi SW 3.5 mph - N/A   Unknown
12:25 PM 37.4 °F - 32.0 °F 81% 29.62 in 6.2 mi WSW 2.3 mph - N/A   Unknown
12:55 PM 37.4 °F 34.9 °F 30.2 °F 75% 29.62 in 6.2 mi SW 3.5 mph - N/A   Mostly Cloudy
1:18 PM 37.4 °F 33.8 °F 30.2 °F 75% 29.62 in 6.2 mi SW 4.6 mph - N/A   Scattered Clouds
1:25 PM 37.4 °F 33.8 °F 30.2 °F 75% 29.62 in 6.2 mi SW 4.6 mph - N/A   Scattered Clouds
1:55 PM 37.4 °F 33.8 °F 32.0 °F 81% 29.62 in 6.2 mi SW 4.6 mph - N/A   Partly Cloudy
3:25 PM 35.6 °F 29.2 °F 33.8 °F 93% 29.62 in 6.2 mi SW 8.1 mph - N/A   Mostly Cloudy
3:51 PM 35.6 °F 30.7 °F 33.8 °F 93% 29.62 in 6.2 mi SW 5.8 mph - N/A   Mostly Cloudy
3:55 PM 33.8 °F 28.6 °F 33.8 °F 100% 29.62 in 6.2 mi SW 5.8 mph - N/A   Mostly Cloudy
4:25 PM 33.8 °F 27.0 °F 32.0 °F 93% 29.62 in 6.2 mi SW 8.1 mph - N/A   Overcast
4:55 PM 33.8 °F 27.7 °F 33.8 °F 100% 29.62 in 6.2 mi WSW 6.9 mph - N/A   Unknown
5:25 PM 33.8 °F 28.6 °F 32.0 °F 93% 29.62 in 5.6 mi WSW 5.8 mph - N/A   Scattered Clouds
5:55 PM 33.8 °F 25.8 °F 33.8 °F 100% 29.62 in 5.0 mi West 10.4 mph - N/A   Overcast
6:04 PM 33.8 °F 27.7 °F 33.8 °F 100% 29.62 in 4.3 mi West 6.9 mph - N/A   Mostly Cloudy
6:18 PM 35.6 °F 29.2 °F 33.8 °F 93% 29.65 in 3.7 mi WSW 8.1 mph - N/A   Drizzle
6:25 PM 35.6 °F 29.2 °F 33.8 °F 93% 29.62 in 3.7 mi WSW 8.1 mph - N/A   Mostly Cloudy
6:26 PM 33.8 °F 27.0 °F 33.8 °F 100% 29.62 in 3.1 mi WSW 8.1 mph - N/A Rain Light Rain
6:32 PM 33.8 °F 27.0 °F 33.8 °F 100% 29.62 in - WSW 8.1 mph - N/A   Mostly Cloudy
6:51 PM 35.6 °F 29.2 °F 33.8 °F 93% 29.65 in - WSW 8.1 mph - N/A   Mostly Cloudy
6:55 PM 33.8 °F 27.0 °F 33.8 °F 100% 29.65 in - WSW 8.1 mph - N/A   Overcast
6:56 PM 35.6 °F 29.2 °F 33.8 °F 93% 29.65 in 3.1 mi WSW 8.1 mph - N/A   Mostly Cloudy
7:00 PM 35.6 °F 29.2 °F 33.8 °F 93% 29.65 in - West 8.1 mph - N/A   Mostly Cloudy
7:04 PM 35.6 °F 28.6 °F 33.8 °F 93% 29.65 in - WSW 9.2 mph - N/A   Light Drizzle
7:08 PM 35.6 °F 28.0 °F 33.8 °F 93% 29.65 in - WSW 10.4 mph - N/A Rain Rain
7:17 PM 35.6 °F 28.0 °F 33.8 °F 93% 29.65 in 3.1 mi WSW 10.4 mph - N/A   Mostly Cloudy
7:25 PM 35.6 °F 28.0 °F 33.8 °F 93% 29.65 in 3.1 mi WSW 10.4 mph - N/A   Mostly Cloudy
7:28 PM 33.8 °F 26.4 °F 33.8 °F 100% 29.65 in 3.7 mi WSW 9.2 mph - N/A   Scattered Clouds
7:33 PM 33.8 °F 26.4 °F 33.8 °F 100% 29.65 in 3.1 mi WSW 9.2 mph - N/A   Scattered Clouds
7:37 PM 33.8 °F 26.4 °F 33.8 °F 100% 29.65 in 3.1 mi WSW 9.2 mph - N/A   Mostly Cloudy
7:55 PM 35.6 °F 28.0 °F 33.8 °F 93% 29.65 in 3.7 mi West 10.4 mph - N/A   Mostly Cloudy
7:56 PM 35.6 °F 28.6 °F 33.8 °F 93% 29.65 in 3.7 mi West 9.2 mph - N/A   Light Drizzle
8:04 PM 33.8 °F 26.4 °F 33.8 °F 100% 29.65 in 4.3 mi West 9.2 mph - N/A   Light Drizzle
8:10 PM 33.8 °F 26.4 °F 33.8 °F 100% 29.65 in 4.3 mi West 9.2 mph - N/A   Mostly Cloudy
8:11 PM 33.8 °F 27.0 °F 33.8 °F 100% 29.65 in 4.3 mi West 8.1 mph - N/A   Mostly Cloudy
8:15 PM 35.6 °F 29.2 °F 33.8 °F 93% 29.65 in 3.7 mi West 8.1 mph - N/A   Overcast
8:25 PM 35.6 °F 28.6 °F 33.8 °F 93% 29.65 in 3.7 mi West 9.2 mph - N/A   Overcast
8:55 PM 33.8 °F 27.0 °F 33.8 °F 100% 29.65 in 3.7 mi West 8.1 mph - N/A   Mostly Cloudy
8:56 PM 33.8 °F 26.4 °F 33.8 °F 100% 29.65 in 3.1 mi West 9.2 mph - N/A   Overcast
9:16 PM 33.8 °F 26.4 °F 33.8 °F 100% 29.65 in 4.3 mi WSW 9.2 mph - N/A   Mostly Cloudy
9:21 PM 33.8 °F 26.4 °F 33.8 °F 100% 29.65 in 3.7 mi WSW 9.2 mph - N/A   Mostly Cloudy
9:25 PM 33.8 °F 26.4 °F 33.8 °F 100% 29.65 in 3.7 mi WSW 9.2 mph - N/A   Mostly Cloudy
9:34 PM 33.8 °F 26.4 °F 33.8 °F 100% 29.65 in 5.0 mi West 9.2 mph - N/A   Mostly Cloudy
9:43 PM 33.8 °F 25.8 °F 33.8 °F 100% 29.65 in 5.0 mi West 10.4 mph - N/A   Mostly Cloudy
9:45 PM 33.8 °F 26.4 °F 33.8 °F 100% 29.68 in 5.6 mi West 9.2 mph - N/A   Mostly Cloudy
9:51 PM 33.8 °F 26.4 °F 33.8 °F 100% 29.68 in 5.6 mi West 9.2 mph - N/A   Mostly Cloudy
9:55 PM 33.8 °F 27.0 °F 33.8 °F 100% 29.68 in 6.2 mi West 8.1 mph - N/A   Mostly Cloudy
9:59 PM 33.8 °F 27.0 °F 33.8 °F 100% 29.68 in 6.2 mi West 8.1 mph - N/A   Mostly Cloudy
10:09 PM 35.6 °F 29.2 °F 33.8 °F 93% 29.68 in 6.2 mi West 8.1 mph - N/A   Light Drizzle
10:25 PM 33.8 °F 28.6 °F 33.8 °F 100% 29.68 in 6.2 mi WNW 5.8 mph - N/A   Overcast
10:34 PM 33.8 °F 28.6 °F 32.0 °F 93% 29.68 in 6.2 mi West 5.8 mph - N/A   Overcast
10:55 PM 33.8 °F 28.6 °F 32.0 °F 93% 29.68 in 6.2 mi West 5.8 mph - N/A   Mostly Cloudy
10:59 PM 33.8 °F 28.6 °F 32.0 °F 93% 29.71 in 6.2 mi West 5.8 mph - N/A   Mostly Cloudy
11:00 PM 33.8 °F 28.6 °F 32.0 °F 93% 29.71 in 6.2 mi WNW 5.8 mph - N/A   Mostly Cloudy
11:09 PM 33.8 °F 27.7 °F 32.0 °F 93% 29.71 in 6.2 mi WNW 6.9 mph - N/A   Mostly Cloudy
11:14 PM 33.8 °F 27.7 °F 32.0 °F 93% 29.71 in 6.2 mi WNW 6.9 mph - N/A   Partly Cloudy
11:25 PM 33.8 °F 27.7 °F 32.0 °F 93% 29.71 in 6.2 mi WNW 6.9 mph - N/A   Unknown
11:55 PM 32.0 °F 26.4 °F 30.2 °F 93% 29.71 in 6.2 mi West 5.8 mph - N/A   Unknown